sat.trackr.live / text

‹ back to catalog

STARLINK-33607

NORAD 63323 · 2025-057S

PAYLOAD ACTIVE UNKNOWN

§ Identity

Operator
Country
US
Launch date
2025-03-18
Launch site
AFETR
Launch vehicle
Mass (kg)
RCS (m²)

Purposes: comms

External: N2YO · Heavens-Above · Gunter

§ Orbital elements

Epoch: 2026-05-24T18:31:41.505888Z

Period
94.27 min
Inclination
42.9993°
Eccentricity
0.0001219
Mean motion
15.27598497 rev/d
Perigee alt
482.2 km
Apogee alt
483.8 km
Semi-major
6,861.1 km
B*
6.7622e-4
RAAN
321.1483°
Arg perigee
273.1141°
Mean anomaly
86.9571°
Rev number
6,737

§ Raw data

STARLINK-336071 63323U 25057S   26144.77200817  .00018403  00000+0  67622-3 0  99962 63323  42.9993 321.1483 0001219 273.1141  86.9571 15.27598497 67375

JSON: /api/v1/satellites/63323 · /tle

For live sub-satellite position, see the globe view (requires WebGL).

§ Visibility from observer

Set your observer location to see the next 7 days of passes ≥ 10°. The values pass through the URL so the page stays shareable.

No JS? Fill the form by hand. The geolocation button needs JavaScript.